Home   Weather   Washington Junction   Past weeks
Flag for USA

Past Weather in Washington Junction, Maryland, USA — Yesterday and Last 2 Weeks

Now
52 °F

Passing clouds.


Feels Like: 49 °F
Forecast: 62 / 46 °F
Wind: 9 mph from Northwest

Location: Reagan National Airport

Current Time: Oct 18, 2019 at 9:42:35 am

Latest Report: Oct 18, 2019 at 8:52 am


Visibility: 10 mi

Pressure: 29.97 "Hg

Humidity: 55%

Dew Point: 36 °F

Location of Washington JunctionLocation

Past Weather in Washington Junction — Graph

°F

Washington Junction Temperature Yesterday

Maximum temperature yesterday: 60 °F (at 11:52 am)
Minimum temperature yesterday: 50 °F (at 1:52 am)
Average temperature yesterday: 55 °F

High & Low Weather Summary for the Past Weeks

 TemperatureHumidityPressure
High84 °F (Oct 7, 1:52 pm)96% (Oct 16, 1:52 pm)30.44 "Hg (Oct 16, 1:52 pm)
Low48 °F (Oct 18, 4:52 am)27% (Oct 14, 2:52 pm)29.51 "Hg (Oct 16, 4:52 pm)
Average64 °F63%30.07 "Hg
* Reported Oct 3 7:56 am — Oct 18 7:52 am, Washington Junction. Weather by CustomWeather, © 2019

Note: Actual official high and low records may vary slightly from our data, if they occured in-between our weather recording intervals... More about our weather records

Advertising

Washington Junction Weather History for the Previous 24 Hours

Scroll right to see more
 ConditionsComfort  
Time TempWeatherWind HumidityBarometerVisibility
7:52 am
Fri, Oct 18
50 °FPassing clouds.6 mph59%29.94 "Hg10 mi
6:52 am49 °FClear.8 mph61%29.93 "Hg10 mi
5:52 am48 °FPassing clouds.8 mph61%29.91 "Hg10 mi
4:52 am48 °FPassing clouds.5 mph61%29.89 "Hg10 mi
3:52 am49 °FPassing clouds.8 mph59%29.87 "Hg10 mi
2:52 am50 °FClear.8 mph54%29.86 "Hg10 mi
1:52 am50 °FClear.6 mph52%29.86 "Hg10 mi
12:52 am52 °FClear.6 mph49%29.86 "Hg10 mi
11:52 pm
Thu, Oct 17
53 °FClear.12 mph47%29.84 "Hg10 mi
10:52 pm54 °FClear.13 mph47%29.85 "Hg10 mi
9:52 pm54 °FPassing clouds.6 mph51%29.83 "Hg10 mi
8:52 pm55 °FPassing clouds.13 mph47%29.80 "Hg10 mi
7:52 pm56 °FPassing clouds.10 mph46%29.79 "Hg10 mi
6:57 pm56 °FPassing clouds.9 mph47%29.78 "Hg10 mi
5:52 pm57 °FScattered clouds.20 mph46%29.75 "Hg10 mi
4:52 pm57 °FPartly sunny.16 mph47%29.73 "Hg10 mi
3:52 pm58 °FPartly sunny.21 mph46%29.71 "Hg10 mi
2:52 pm59 °FPartly sunny.23 mph44%29.70 "Hg10 mi
1:52 pm59 °FPartly sunny.25 mph42%29.69 "Hg10 mi
12:52 pm59 °FPartly sunny.15 mph42%29.69 "Hg10 mi
11:52 am60 °FPartly sunny.21 mph44%29.68 "Hg10 mi
9:52 am56 °FPartly sunny.13 mph49%29.66 "Hg10 mi
Weather by CustomWeather, © 2019

See weather overview